This demonstration page uses our WeatherBlox Daily Observations layout. Learn more.

Left ArrowRight Arrow

39.01783, -85.05884

Hourly Observations for March 23, 2015

Temp ( °F °C ) Dew Point ( °F °C ) Humidity (%) Winds ( mph kmh ) Pressure ( in mb ) Visibility ( mi km ) Precip ( " mm )
12:52 am 00:52 Partly Cloudy 38 3.3 16 -8.9 41 41 ENE 13 20 30.17 1022 10 16 0.00 0.00
1:52 am 01:52 Mostly Clear 37 2.8 18 -7.8 46 46 ENE 14 22 30.17 1022 10 16 0.00 0.00
2:52 am 02:52 Clear 35 1.7 18 -7.8 50 50 NE 13 20 30.18 1022 10 16 0.00 0.00
3:52 am 03:52 Mostly Clear 34 1.1 18 -7.8 52 52 NE 14 22 30.18 1022 10 16 0.00 0.00
4:52 am 04:52 Mostly Clear 33 0.6 18 -7.8 54 54 ENE 13 20 30.17 1022 10 16 0.00 0.00
5:52 am 05:52 Mostly Clear 32 0 17 -8.3 54 54 ENE 10 17 30.18 1022 10 16 0.00 0.00
6:52 am 06:52 Mostly Clear 32 0 16 -8.9 52 52 ENE 9 15 30.19 1022 10 16 0.00 0.00
7:52 am 07:52 Mostly Cloudy 31 -0.6 13 -10.6 47 47 ENE 13 20 30.20 1023 10 16 0.00 0.00
8:52 am 08:52 Mostly Cloudy 32 0 14 -10 47 47 ENE 14 22 30.21 1023 10 16 0.00 0.00
9:52 am 09:52 Mostly Sunny 35 1.7 15 -9.4 44 44 E 16 26 30.19 1022 10 16 0.00 0.00
10:52 am 10:52 Mostly Sunny 38 3.3 16 -8.9 41 41 NE 10 17 30.20 1023 10 16 0.00 0.00
11:52 am 11:52 Mostly Sunny 41 5 16 -8.9 36 36 ENE 10 17 30.19 1022 10 16 0.00 0.00
12:52 pm 12:52 Partly Cloudy 45 7 16 -9 31 31 NE 7 11 30.21 1023 10 16 0.00 0.00
1:52 pm 13:52 Mostly Cloudy 48 8.9 16 -8.9 28 28 ENE 8 13 30.15 1021 10 16 0.00 0.00
2:52 pm 14:52 Mostly Cloudy 50 10 16 -8.9 26 26 NNE 9 15 30.12 1020 10 16 0.00 0.00
3:52 pm 15:52 Cloudy 49 9.4 16 -8.9 27 27 VRB 5 7 30.10 1019 10 16 0.00 0.00
4:52 pm 16:52 Cloudy 47 8.3 17 -8.3 30 30 NNE 20 31 30.10 1019 10 16 0.00 0.00
4:57 pm 16:57 Cloudy 46 8 19 -7 34 34 NNE 16 26 30.12 1020 10 16 0.00 0.03
5:52 pm 17:52 Cloudy with Light Rain 41 5 23 -5 49 49 ENE 15 24 30.10 1019 10 16 0.00 0.03
6:52 pm 18:52 Cloudy 37 2.8 28 -2.2 70 70 NNE 15 24 30.14 1021 10 16 0.01 0.25
7:06 pm 19:06 Cloudy 37 3 27 -3 65 65 NE 15 24 30.15 1021 10 16 0.00 0.00
7:14 pm 19:14 Cloudy with Light Rain 37 3 27 -3 65 65 NNE 13 20 30.15 1021 9 14 0.00 0.00
7:52 pm 19:52 Cloudy 35 1.7 26 -3.3 70 70 NE 14 22 30.16 1021 10 16 0.00 0.03
8:52 pm 20:52 Cloudy 34 1.1 26 -3.3 73 73 NE 15 24 30.16 1021 10 16 0.00 0.00
9:52 pm 21:52 Cloudy 34 1.1 26 -3.3 73 73 NE 8 13 30.16 1022 10 16 0.00 0.00
10:52 pm 22:52 Cloudy 33 0.6 26 -3.3 75 75 ENE 15 24 30.17 1022 10 16 0.00 0.00
11:52 pm 23:52 Cloudy 33 0.6 27 -2.8 78 78 NNE 12 19 30.17 1022 10 16 0.00 0.00

Powered by AerisWeather